Lapse_Rate
6.5 6.5 6.5 6.5 6.5 6.5 6.5 6.5 6.5 6.5 6.5 6.5 6.5 6.5 6.5 6.8 7.1 7.0 7.0 6.9 6.0 4.5 3.4 2.9 3.5 2.8 2.5 2.9 3.9 3.5 3.8 2.7 2.4 2.4 3.1 2.3 1.0 1.7 1.1 2.1 1.6 1.7 1.0 0.6
6.5 6.5 6.5 6.5 6.5 6.5 6.5 6.5 6.5 6.5 6.5 6.5 6.5 6.6 6.6 6.9 7.2 7.0 7.1 6.9 6.1 4.7 3.3 2.7 2.7 3.1 3.4 3.3 3.6 3.6 3.4 3.5 3.5 3.9 3.5 2.5 1.4 2.0 1.5 1.5 1.3 1.4 0.6 0.1
6.5 6.5 6.5 6.5 6.5 6.5 6.5 6.5 6.5 6.5 6.5 6.5 6.5 6.5 6.5 6.8 7.1 7.2 7.3 6.9 5.5 4.7 3.4 2.5 1.9 1.9 3.0 4.3 3.6 3.6 3.5 5.0 4.4 4.5 3.5 2.4 1.7 0.9 1.4 1.5 1.7 1.3 0.2 0.7
6.5 6.5 6.5 6.5 6.5 6.5 6.5 6.5 6.5 6.5 6.5 6.5 6.5 6.7 6.9 7.1 7.1 7.3 7.3 6.4 4.9 3.5 2.6 1.9 1.7 1.7 1.4 4.5 4.2 3.9 5.1 4.7 4.7 4.1 3.2 2.0 1.9 1.4 1.7 1.3 2.2 0.9 0.7 1.0
6.5 6.5 6.5 6.5 6.5 6.5 6.5 6.5 6.5 6.5 6.5 6.5 6.8 6.8 6.8 7.8 7.9 7.5 7.0 5.3 4.5 3.3 2.4 1.3 1.1 0.9 2.4 5.1 5.6 4.7 5.3 5.0 4.5 4.5 3.2 1.8 1.6 1.2 1.2 1.0 1.1 1.1 1.5 1.3
6.5 6.5 6.5 6.5 6.5 6.9 6.5 6.5 6.5 6.6 6.5 6.5 6.8 6.5 6.5 7.4 7.8 7.4 6.5 5.4 3.6 2.5 1.7 0.3 -0.5 0.1 3.6 5.8 5.3 5.3 4.9 4.7 4.4 4.1 2.9 2.3 1.7 1.1 0.8 1.4 1.0 1.5 1.6 2.2
6.5 6.5 6.5 6.5 6.6 6.8 6.5 6.5 6.8 6.9 6.8 6.7 6.5 6.6 6.8 7.4 7.5 7.1 6.6 4.8 3.1 2.5 1.3 0.6 -0.3 -0.2 1.0 4.7 4.9 4.9 4.7 4.5 4.2 3.7 2.5 1.9 0.8 0.1 0.0 0.4 0.5 0.8 1.0 2.5
6.5 6.5 6.5 6.8 6.7 6.5 6.6 7.0 7.2 7.0 6.9 6.9 7.1 7.2 7.5 7.4 6.9 6.4 5.5 3.4 2.0 2.1 1.5 0.7 0.0 -0.2 -0.9 -1.5 -1.8 2.9 3.9 2.5 1.1 0.7 1.0 0.2 -0.7 -0.8 -0.5 -0.4 0.2 0.7 2.3 3.8
6.5 6.5 6.7 6.9 6.4 7.5 7.6 7.0 7.1 6.7 7.0 6.9 7.2 7.1 7.3 6.9 7.0 6.7 5.8 4.6 3.6 2.8 2.4 1.1 0.3 -0.4 -0.6 -1.7 -2.1 -0.8 0.2 -0.1 -1.1 -1.3 -1.0 -1.4 -1.8 -1.6 -0.7 -0.0 0.8 1.4 1.8 2.6
6.5 6.5 6.5 6.9 6.3 6.7 7.3 6.5 5.8 6.9 7.0 7.0 6.9 7.0 6.8 6.7 6.7 6.5 5.8 4.9 4.3 3.0 2.0 1.8 0.8 -0.4 -0.2 -1.2 -1.0 -1.9 -1.9 -1.7 -1.7 -1.6 -1.2 -1.3 -0.4 -0.4 -0.9 0.4 1.5 1.6 2.5 2.8
6.5 6.3 6.2 6.0 6.0 6.6 6.3 5.5 7.3 7.0 6.7 6.4 6.7 6.5 6.6 6.4 6.5 6.0 5.6 5.1 4.9 3.8 3.1 2.5 2.3 1.3 0.3 -0.1 -0.1 -0.3 -1.3 -1.4 -0.8 -0.7 -0.8 -0.9 -0.1 0.4 0.7 0.7 1.3 0.8 1.7 2.6
6.5 6.2 6.7 6.5 6.4 5.2 5.1 7.0 6.9 6.4 6.1 6.2 6.4 6.6 6.4 6.6 6.2 5.7 5.4 5.2 4.7 4.3 4.0 3.4 3.0 2.6 2.1 1.5 1.4 0.7 0.4 0.9 0.4 0.6 0.9 1.2 1.5 2.1 3.2 2.9 3.6 3.4 3.2 3.5
6.2 6.6 6.1 4.3 4.6 5.5 7.0 6.9 7.0 6.5 6.5 6.2 6.1 6.1 6.1 5.9 6.4 5.9 5.2 4.9 4.7 4.6 4.3 3.9 3.9 3.6 3.2 2.7 2.3 1.8 1.5 2.0 2.0 1.6 2.1 2.4 3.0 3.3 4.1 4.9 4.5 4.0 3.6 4.3
4.5 5.5 5.0 5.6 6.6 6.7 6.7 6.7 6.5 6.3 6.3 6.1 6.1 5.9 5.8 5.6 5.3 5.1 5.0 5.0 4.7 4.5 4.3 4.3 4.2 4.0 3.9 3.6 3.3 3.1 2.8 3.1 2.7 2.6 3.1 3.4 3.4 3.9 4.3 5.1 5.4 5.8 5.7 5.0
4.0 5.0 5.1 5.9 6.1 6.2 6.2 6.0 6.1 6.1 6.2 6.2 6.0 5.8 5.7 5.8 5.7 5.5 5.1 4.8 4.9 4.6 4.4 4.4 4.4 4.8 4.5 4.2 3.8 3.7 3.7 3.7 3.8 3.9 4.0 4.0 4.1 4.6 4.9 5.0 5.3 5.9 6.0 6.0
4.3 4.7 5.1 5.8 5.9 5.8 5.6 4.9 6.0 6.1 5.8 6.0 5.9 5.9 5.9 5.7 5.6 5.3 5.1 5.2 5.0 4.9 4.7 4.4 4.2 4.5 4.5 4.6 4.9 5.1 5.1 5.1 4.6 4.5 4.8 4.8 5.0 5.1 5.3 5.6 5.8 5.8 5.6 5.9
4.0 4.5 4.6 5.2 5.6 5.5 5.6 6.0 6.0 6.0 5.9 5.8 5.8 5.6 5.5 5.7 5.6 5.4 5.2 5.0 4.9 5.4 5.2 4.7 4.5 4.3 4.0 4.0 4.3 4.5 4.7 4.9 4.9 4.2 4.4 4.6 4.7 4.8 5.1 5.2 4.8 4.1 3.7 4.4
4.7 5.1 5.2 5.5 5.3 5.4 5.8 5.8 5.8 5.7 5.7 5.6 5.4 5.4 5.5 5.6 5.8 5.5 5.2 4.9 4.8 4.7 5.1 5.6 5.0 4.5 4.1 4.0 4.0 4.0 4.0 3.9 3.9 3.8 3.8 3.7 3.7 3.9 4.0 4.1 4.1 4.2 4.5 4.5
4.9 5.1 5.1 5.0 5.1 5.2 5.3 5.4 5.4 5.4 5.5 5.5 5.6 5.7 5.8 5.7 5.7 5.3 4.8 4.9 5.0 4.9 4.8 4.6 4.9 4.8 4.9 4.8 4.1 4.1 4.1 4.0 4.1 4.2 4.2 4.2 3.6 3.4 3.2 3.0 2.7 2.5 2.5 2.7
4.9 5.0 4.9 4.7 4.7 4.8 5.0 5.1 5.2 5.3 5.3 5.4 5.6 5.7 5.7 5.7 5.7 5.6 5.2 5.2 5.6 5.5 4.4 3.9 3.3 3.4 3.7 3.9 3.5 3.1 3.1 3.2 3.1 3.0 2.8 2.6 2.5 2.4 2.5 2.4 1.6 1.6 1.4 1.3
4.8 4.9 4.8 4.9 4.9 4.7 4.6 4.9 5.1 5.2 5.3 5.3 5.4 5.5 5.8 6.0 5.5 5.4 5.0 5.3 5.8 5.3 4.7 4.2 3.6 2.9 2.7 2.4 2.0 2.1 2.3 2.3 2.4 2.4 2.2 1.8 1.4 1.3 1.3 1.3 1.1 0.7 0.5 0.3
4.8 4.9 4.8 4.8 4.7 4.6 4.4 4.5 4.8 5.1 5.0 5.3 5.4 5.6 5.7 5.7 6.3 5.8 5.4 5.3 5.8 5.5 4.2 3.8 3.9 3.9 3.0 2.1 1.2 1.0 0.8 0.6 0.4 0.5 0.4 0.4 0.4 0.2 0.1 0.1 -0.2 -0.2 -0.3 -0.3
4.8 5.0 4.8 4.7 4.6 4.6 4.4 4.2 4.3 4.3 4.5 4.6 4.7 4.8 5.6 5.7 5.6 6.8 6.2 6.2 5.4 5.1 4.2 4.4 4.3 3.5 2.4 0.2 0.2 -0.1 -0.3 -0.5 -0.7 -0.7 -0.8 -0.8 -1.0 -1.0 -0.9 -0.7 -0.8 -0.6 -0.9 -1.2
4.7 4.6 4.5 5.1 5.0 4.6 4.0 4.4 4.2 4.1 4.0 4.3 4.4 4.3 4.1 5.0 5.0 4.7 5.4 5.7 5.5 4.7 4.5 4.2 3.9 3.3 1.4 -0.2 -0.6 -1.2 -1.3 -1.2 -0.9 -0.7 -0.2 -0.1 -1.7 -1.6 -1.8 -2.0 -1.9 -2.3 -2.0 -1.2
4.0 3.9 4.3 4.2 4.3 4.4 4.4 4.3 4.5 4.1 4.2 4.0 4.0 3.9 4.0 4.3 4.0 4.1 3.7 4.2 4.6 2.7 2.4 4.4 3.7 2.4 -0.1 -0.6 -1.1 -2.1 -2.9 -3.2 -3.2 -2.3 -2.4 -2.0 -2.3 -2.0 -2.2 -2.2 -2.9 -2.3 -1.3 1.1
4.2 3.6 3.7 3.7 3.8 4.4 4.6 4.3 3.9 4.4 4.0 3.8 3.7 3.6 3.8 4.1 4.5 3.1 3.8 3.8 3.0 3.1 2.0 2.3 1.2 0.4 0.1 -0.3 -1.7 -2.4 -2.5 -2.0 -3.8 -3.9 -3.9 -4.9 -4.5 -4.3 -4.1 -2.0 -0.2 1.1 1.4 1.0
5.0 5.1 4.1 4.2 4.0 3.8 5.1 4.8 3.7 3.8 3.9 3.4 3.2 3.2 3.2 3.3 4.3 3.6 3.5 2.5 2.6 2.3 1.9 1.5 1.2 1.9 0.1 -0.6 -1.2 -1.6 -1.5 -0.7 -0.4 -2.6 -2.9 -3.1 -2.6 -2.6 -1.7 -0.9 -0.5 -0.0 0.3 0.2
Wind_Speed
14 9 2 15 22 16 18 14 8 12 10 23 24 24 17 16 18 20 22 20 17 15 12 12 9 3 10 17 18 17 16 16 17 15 14 14 14 14 15 15 14 14 14 13
2 5 7 8 18 18 11 20 11 14 9 24 22 17 16 24 20 20 17 18 17 15 14 12 10 9 3 15 18 18 17 16 15 15 14 15 15 14 13 12 12 12 12 13
4 9 9 3 19 20 11 17 16 16 17 13 19 14 20 22 20 19 18 17 16 14 12 10 11 9 6 10 16 18 16 15 15 15 14 14 15 15 14 13 14 14 13 13
4 7 4 4 13 15 15 10 23 19 19 17 17 9 19 21 18 20 18 17 15 12 12 11 11 9 7 6 15 15 14 15 16 16 15 14 14 14 14 12 13 13 13 13
4 4 3 2 22 24 11 3 22 20 23 24 24 8 5 24 21 18 17 14 12 11 11 11 10 11 7 5 11 13 14 15 16 15 15 15 15 14 13 13 11 9 10 13
4 4 5 8 25 25 7 3 26 25 24 23 22 15 12 22 19 16 14 12 13 13 12 13 14 12 5 8 10 11 12 14 15 15 16 16 14 14 12 12 12 10 10 11
6 3 2 16 21 19 8 9 24 23 19 17 14 8 13 17 15 14 13 13 13 12 11 12 13 12 9 5 7 8 9 12 13 13 14 14 14 12 12 13 12 11 12 10
5 4 4 21 9 9 8 14 20 20 18 19 18 16 14 14 15 14 14 16 16 13 12 12 12 10 9 9 7 5 12 10 9 11 10 11 14 10 12 13 14 13 12 10
2 3 7 14 2 11 13 16 18 16 17 16 15 14 15 14 14 13 14 13 12 10 11 11 12 11 9 9 8 5 11 11 12 11 10 12 15 14 11 12 12 12 11 11
5 1 11 12 6 16 17 17 19 14 14 13 13 12 11 12 11 11 11 11 10 10 11 11 11 11 8 8 8 10 12 12 10 12 12 10 8 9 11 11 11 11 11 11
5 4 14 3 15 15 19 18 15 13 11 11 10 10 9 10 11 10 9 9 8 9 9 10 9 10 10 9 7 12 11 11 11 10 11 10 8 6 7 7 12 13 12 12
4 9 8 15 15 22 18 13 14 11 14 13 12 11 10 9 9 7 8 8 9 10 9 10 10 10 9 9 7 9 11 8 9 9 9 9 10 10 17 17 20 21 21 15
5 9 15 19 17 13 13 13 13 10 10 10 10 9 8 6 6 8 8 9 10 9 9 9 10 10 9 9 9 10 10 9 9 11 9 10 10 11 12 14 21 22 24 25
8 9 8 5 9 12 11 11 10 8 7 7 7 6 6 5 7 9 10 9 9 9 10 10 10 11 9 9 11 12 11 17 8 8 9 9 10 11 11 11 12 11 20 21
7 8 8 10 8 9 7 7 7 8 7 7 8 7 8 9 10 10 10 10 10 11 11 11 11 11 9 10 11 11 9 8 9 9 9 12 11 11 11 12 12 11 12 16
12 7 6 6 7 7 7 6 5 8 8 9 10 11 10 10 11 12 12 12 11 10 11 11 11 10 10 10 11 10 11 20 15 9 10 10 10 11 11 12 12 11 10 11
4 7 6 5 6 6 5 6 8 8 10 11 12 11 11 11 12 13 12 12 13 12 11 10 10 11 11 11 11 8 8 10 19 11 10 10 10 11 11 11 10 9 9 11
3 3 3 3 5 6 8 9 9 11 11 10 10 11 13 13 12 11 11 11 12 14 14 11 10 11 11 11 10 9 9 9 10 10 10 10 10 10 11 11 11 11 10 12
5 6 7 8 9 9 7 9 10 10 10 9 10 11 11 11 11 10 11 13 13 13 12 11 19 14 11 14 12 8 9 10 10 9 10 15 11 10 10 10 10 10 9 8
9 9 9 10 10 9 9 9 9 9 9 9 9 10 12 12 10 10 11 14 11 8 9 11 11 11 11 14 16 8 9 10 10 9 9 10 10 10 10 14 10 8 8 7
8 9 10 10 8 8 9 9 8 9 9 10 9 9 9 11 12 10 12 10 12 12 13 16 10 7 7 9 10 8 8 9 9 8 8 8 9 8 8 8 8 7 7 7
6 7 9 9 7 7 9 8 8 9 10 9 10 9 9 10 9 11 12 9 7 17 10 8 8 15 11 15 8 8 8 8 8 7 7 7 7 7 7 7 7 7 6 6
6 6 7 7 6 5 7 8 8 9 9 9 9 9 8 7 7 6 8 10 8 14 9 9 17 21 20 9 8 8 8 8 7 7 6 6 6 6 6 6 6 6 6 5
4 5 5 5 5 7 8 7 7 8 7 8 9 8 6 5 7 7 8 14 18 17 12 12 16 21 17 7 7 8 7 7 7 6 7 11 6 6 6 5 5 4 4 4
4 4 4 5 6 5 5 5 5 6 7 7 8 7 8 6 5 5 6 8 18 12 9 18 21 20 8 8 7 7 6 5 4 6 5 5 5 5 4 4 3 3 4 6
3 3 3 5 4 4 3 4 4 4 4 4 5 5 5 5 5 6 6 10 8 11 7 6 6 7 5 6 6 6 5 5 5 4 5 3 4 3 3 4 3 5 5 4
2 5 3 3 4 4 3 5 3 4 4 3 4 5 5 5 6 6 8 5 5 5 5 5 6 9 7 6 5 7 7 8 10 8 8 7 5 5 5 4 4 5 6 6
Wind_Direction
304 292 254 45 10 360 27 7 30 323 336 356 345 347 348 40 39 50 46 40 37 33 28 22 18 165 167 162 162 163 165 168 171 166 167 157 153 157 156 159 162 160 148 146
292 314 342 51 11 358 1 20 7 355 12 345 340 329 354 38 26 41 42 32 27 24 21 17 20 16 215 167 164 163 166 171 163 162 163 162 153 156 155 152 149 147 149 155
280 323 315 2 11 348 348 32 9 13 329 323 337 343 10 20 19 25 30 22 18 14 8 1 0 353 345 173 164 169 164 162 163 163 161 158 152 150 151 152 155 159 151 151
290 317 52 163 9 352 336 28 12 356 343 332 329 247 28 17 11 16 16 10 7 359 355 359 347 350 324 189 167 163 162 161 159 162 156 151 153 152 151 154 163 158 156 153
330 319 257 350 353 341 337 289 11 342 344 354 351 340 355 8 10 7 5 357 353 351 350 350 353 337 311 190 158 156 160 160 157 159 153 150 155 153 152 146 143 141 152 151
331 344 351 359 336 330 310 236 359 347 345 354 350 16 348 346 355 357 2 357 350 351 355 358 350 340 268 155 146 160 159 160 157 157 155 158 154 155 155 151 147 146 148 157
350 355 93 357 337 328 42 310 327 334 333 344 4 342 318 337 348 354 354 350 358 7 7 354 350 349 24 113 133 142 141 147 152 152 152 148 142 142 137 136 133 136 139 147
331 350 0 3 349 31 313 311 322 330 336 343 340 338 344 344 356 358 359 359 3 5 2 358 1 2 30 26 331 175 136 133 128 133 136 138 134 132 133 135 133 135 131 133
294 305 358 335 263 348 331 325 330 323 334 333 335 341 349 347 350 356 2 359 358 359 359 5 7 14 24 6 8 60 110 116 116 112 121 133 133 134 133 135 138 139 141 139
333 29 323 312 303 340 333 323 315 323 328 333 338 342 346 350 355 357 2 0 352 359 8 12 7 12 26 14 47 63 90 99 107 115 112 109 119 137 138 143 144 143 144 144
266 301 325 105 326 317 322 318 320 332 333 340 340 349 350 355 360 357 0 356 358 9 10 12 16 19 14 19 59 81 80 91 97 102 106 104 93 114 134 134 150 150 151 148
273 315 292 285 305 312 314 324 333 341 342 350 353 357 357 3 355 356 359 355 12 17 20 15 25 32 26 27 50 89 89 91 104 103 102 104 107 102 98 115 129 130 134 134
268 293 289 283 295 295 318 334 337 348 354 346 351 356 3 355 0 9 6 13 18 21 23 24 30 37 35 46 61 76 90 96 98 108 111 114 115 114 116 104 110 121 122 125
263 277 289 260 310 320 332 338 338 346 351 356 357 3 6 8 10 19 20 15 21 28 29 29 36 38 35 52 70 75 80 83 88 97 105 109 110 112 114 117 117 117 119 124
313 303 265 289 319 342 345 343 2 7 4 13 18 20 21 26 30 30 27 23 30 34 32 33 34 36 44 59 69 75 81 84 89 93 98 101 104 108 110 112 112 112 117 113
304 304 324 345 342 347 345 350 20 22 21 26 27 24 27 34 37 36 33 30 37 33 28 34 34 28 41 56 71 78 86 92 91 91 96 98 101 105 109 111 113 113 115 118
333 352 340 347 353 347 358 19 31 31 31 31 27 26 31 35 41 38 34 34 37 35 36 36 37 40 47 55 67 73 80 88 92 85 88 92 97 100 103 103 100 95 94 105
279 286 328 348 4 6 21 24 31 33 32 30 31 34 35 35 35 34 33 33 39 38 29 39 49 49 52 58 66 73 77 80 82 85 88 89 92 96 99 99 100 101 100 103
7 17 19 26 19 23 20 26 29 30 29 31 37 37 35 32 33 35 38 42 40 36 23 33 48 50 58 67 67 73 79 82 82 85 91 95 91 91 94 95 94 92 95 100
23 24 28 31 26 22 25 25 29 33 27 31 39 42 41 33 26 35 42 45 36 39 36 37 43 46 53 66 72 69 74 78 83 85 86 87 90 91 92 92 95 95 98 99
27 27 29 27 22 24 28 22 27 31 28 33 37 35 37 40 37 35 44 45 30 34 44 48 50 49 56 63 63 66 71 76 77 82 87 91 95 91 92 94 95 97 99 99
29 37 34 27 22 28 27 25 27 35 35 33 31 28 34 32 41 50 47 44 35 45 45 45 54 68 70 66 61 65 67 72 75 78 80 84 89 92 89 92 96 96 98 99
39 44 39 28 21 31 36 30 27 30 35 33 30 25 34 41 29 45 58 42 47 49 48 55 62 64 64 54 58 63 66 69 72 73 75 78 82 87 92 98 95 101 102 102
41 38 37 22 35 44 41 18 24 29 28 34 37 29 29 36 45 30 44 53 56 59 61 60 63 65 64 54 57 60 61 63 69 74 81 85 80 84 86 95 99 98 95 91
49 37 32 36 43 39 25 8 32 27 24 30 28 25 28 33 57 33 43 48 57 55 50 59 66 65 57 59 63 65 67 67 64 79 78 85 88 93 94 96 93 104 105 131
54 48 43 39 32 20 28 25 38 31 26 33 33 18 22 30 46 43 49 58 53 57 49 58 58 54 57 63 60 61 61 72 73 75 89 82 86 76 78 87 97 118 145 159
53 80 39 40 24 10 31 44 41 34 34 29 45 19 21 25 43 58 64 48 51 48 50 52 52 63 60 58 58 66 73 84 96 97 103 108 107 134 145 152 131 132 157 178